Regional Weather Roundup
Issued by NWS

Home | Current Version | Previous Version | Graphics & Text | Print | Product List | Glossary On
Versions: 1 2 3 4 5 6 7 8 9 10 11 12 13 14 15 16 17 18 19 20 21 22 23 24 25 26 27 28 29 30 31 32 33 34 35 36 37 38 39 40 41 42 43 44 45 46 47 48 49 50
000
ASUS43 KIND 242309
RWRIN

WEATHER ROUNDUP FOR INDIANA
NATIONAL WEATHER SERVICE INDIANAPOLIS IN
600 PM EST SAT FEB 24 2018

NOTE: "FAIR" INDICATES FEW OR NO CLOUDS BELOW 12,000 FEET WITH NO
SIGNIFICANT WEATHER AND/OR OBSTRUCTIONS TO VISIBILITY.

* - STATION DOES NOT REPORT WEATHER SUCH AS PRECIPITATION OR FOG.

+ - STATION NOT QUALITY CONTROLLED BY THE NATIONAL WEATHER SERVICE.
    USE DATA WITH CAUTION...ESPECIALLY DEWPOINT AND RELATIVE
    HUMIDITY OBSERVATIONS.

INZ001>003-010>013-019-020-250000-
NORTHWEST INDIANA

CITY           SKY/WX    TMP DP  RH WIND       PRES   REMARKS
GARY /AIRPORT/ DRIZZLE   45  41  87 E14       29.85F
LA PORTE +     CLOUDY    41  39  93 SE14      29.89F FOG
MICHIGAN CITY+ CLOUDY    41  37  87 SE10      29.86F
MONTICELLO +   CLOUDY    46  45  96 E8G17     29.86F
RENSSELAER +   CLOUDY    46  41  81 E12       29.85F HAZE
VALPARAISO     CLOUDY    45  41  86 E13       29.87F

$$

LMZ046-743>745-250000-
SOUTHERN LAKE MICHIGAN

STATION/POSITION TIME  TEMP    WIND        PRES    WAVE
                       AIR SEA DIR/SP/G            HT
                 (UTC) (F)     (DEG/KT/KT) (MB)    (FT)
BURNS HARBOR     2240   43     120/ 12/ 17 1011.9F
MICHIGAN CITY    2240   41      90/ 12/ 15   N/A

$$

INZ004-005-014>016-021>024-250000-
NORTH CENTRAL INDIANA

CITY           SKY/WX    TMP DP  RH WIND       PRES   REMARKS
ELKHART        CLOUDY    39  36  87 E13       29.92F WCI  32
GOSHEN         CLOUDY    40  37  89 E16       29.92F WCI  31
LOGANSPORT +   CLOUDY    45  43  93 E15G21    29.88F
PERU/GRISSOM   CLOUDY    46  46 100 E13       29.87F
ROCHESTER +    CLOUDY    45  43  93 E12       29.90F
SOUTH BEND     CLOUDY    40  36  86 E16G23    29.91F WCI  31
WARSAW +       CLOUDY    41  39  93 N12       29.92S

$$

INZ006>009-017-018-025>027-250000-
NORTHEAST INDIANA

CITY           SKY/WX    TMP DP  RH WIND       PRES   REMARKS
AUBURN +       CLOUDY    37  36  93 E9G25     29.96F WCI  31
FORT WAYNE     CLOUDY    43  41  93 E18       29.95F
HUNTINGTON +   CLOUDY    42  40  96 E10G17    29.92F
KENDALLVILLE + CLOUDY    38  36  90 E9G18     29.95F WCI  32

$$

INZ028-029-035-036-043>045-051>053-250000-
WEST CENTRAL INDIANA

CITY           SKY/WX    TMP DP  RH WIND       PRES   REMARKS
CRAWFORDSVL +  CLOUDY    48  48 100 E12         N/A
GREENCASTLE +  CLOUDY    50  48  93 E9        29.84F FOG
LAFAYETTE      CLOUDY    48  47  96 E10       29.84F
TERRE HAUTE    LGT RAIN  53  51  93 SE13      29.81F

$$

INZ030>032-037>040-046>048-054>057-064-065-250000-
CENTRAL INDIANA

CITY           SKY/WX    TMP DP  RH WIND       PRES   REMARKS
COLUMBUS       CLOUDY    50 N/A N/A SE7       29.87F FOG
FRANKFORT +    CLOUDY    51  49  92 SE12      29.86F
INDIANAPOLIS   LGT RAIN  50  49  96 E12       29.85F FOG
-EAGLE CREEK   CLOUDY    51  48  89 SE9       29.85F
KOKOMO +       CLOUDY    47  45  93 E14       29.88F
MARION +       CLOUDY    46  46 100 E9        29.91F FOG
MT COMFORT *+  CLOUDY    50  50 100 E10       29.87F
SHELBYVILLE    CLOUDY    51  48  89 E10       29.85F
ZIONSVILLE +   CLOUDY    48  47  97 E10       29.86F

$$

INZ033-034-041-042-049-050-058-059-250000-
EAST CENTRAL INDIANA

CITY           SKY/WX    TMP DP  RH WIND       PRES   REMARKS
MUNCIE         CLOUDY    51  47  86 E13       29.89F
RICHMOND +     CLOUDY    46  46 100 E15       29.90F

$$

INZ060-061-067>069-081>083-085>088-250000-
SOUTHWEST INDIANA

CITY           SKY/WX    TMP DP  RH WIND       PRES   REMARKS
EVANSVILLE     HVY RAIN  54  54 100 SE5       29.81F VSB 1
HUNTINGBURG +  LGT RAIN  54  53  97 SE8       29.82F
WASHINGTON +   RAIN      54  52  94 SE8       29.82R

$$

INZ062-063-066-070>080-084-089>092-250000-
SOUTH CENTRAL AND SOUTHEAST INDIANA

CITY           SKY/WX    TMP DP  RH WIND       PRES   REMARKS
BATESVILLE +   CLOUDY    50  50 100 MISG      29.90S FOG
BEDFORD +      LGT RAIN  52  50  93 E9        29.83F
BLOOMINGTON    LGT RAIN  52  51  97 SE9G17    29.83F
FRENCH LICK *+ CLOUDY    52 N/A N/A E6        29.84R
MADISON *+     CLOUDY    52  50  93 E8        29.90F
NORTH VERNON + LGT RAIN  52  50  93 E7        29.89F
SEYMOUR +      LGT RAIN  54  54 100 SE7       29.86F

$$





USA.gov is the U.S. government's official web portal to all federal, state and local government web resources and services.